Simultaneous Nadir Overpasses (SNOs) Predictions

Prediction of SNOs between NOAA-15 and METOP-C Satellite Orbit:

Table of predicted SNOs for the next 14.0 days since TLE Epoch: 10/2/2020
Index Date (NOAA-15) Time (NOAA-15) Lat,Lon (NOAA-15) SZA (NOAA-15 ) Date (METOP-C) Time (METOP-C) Lat,Lon (METOP-C) SZA (METOP-C ) Distance(km) Time Diff (sec)
1 10/03/2020 12:11:33 80.96, 33.20 87.17 10/03/2020 12:10:20 80.97, 33.24 87.15 1.76 73
2 10/03/2020 13:02:07 -80.96,-159.56 92.83 10/03/2020 13:01:02 -80.96,-159.56 92.86 0.33 65
3 10/03/2020 13:52:36 80.97, 7.73 87.18 10/03/2020 13:51:42 80.96, 7.73 87.16 0.32 54
4 10/03/2020 14:43:10 -80.97, 174.96 92.82 10/03/2020 14:42:24 -80.96, 174.93 92.85 1.73 46
5 10/03/2020 15:33:38 80.96, -17.38 87.22 10/03/2020 15:33:03 80.97, -17.42 87.21 1.62 35
6 10/03/2020 16:24:12 -80.96, 149.85 92.78 10/03/2020 16:23:45 -80.97, 149.78 92.80 1.09 27
7 10/03/2020 17:14:41 80.97, -42.85 87.23 10/03/2020 17:14:25 80.96, -42.93 87.21 1.38 16
8 10/03/2020 18:05:15 -80.97, 124.37 92.77 10/03/2020 18:05:07 -80.96, 124.28 92.79 2.45 8
9 10/03/2020 18:55:43 80.96, -67.96 87.27 10/03/2020 18:55:46 80.97, -68.07 87.27 2.30 3
10 10/03/2020 19:46:17 -80.97, 99.26 92.73 10/03/2020 19:46:28 -80.97, 99.13 92.74 2.18 11
11 10/03/2020 20:36:46 80.97, -93.44 87.28 10/03/2020 20:37:08 80.96, -93.58 87.27 2.62 22
12 10/03/2020 21:27:19 -80.96, 74.14 92.70 10/03/2020 21:27:49 -80.98, 73.99 92.69 3.20 30
13 10/03/2020 22:17:49 80.98,-118.91 87.30 10/03/2020 22:18:29 80.97,-118.72 87.33 3.31 40
14 10/03/2020 23:08:22 -80.97, 48.67 92.68 10/03/2020 23:09:11 -80.97, 48.48 92.68 3.27 49
15 10/03/2020 23:58:51 80.97,-144.02 87.33 10/03/2020 23:59:50 80.98,-143.87 87.38 2.79 59
16 10/04/2020 00:49:25 -80.98, 23.19 92.67 10/04/2020 00:50:32 -80.98, 23.34 92.63 2.58 67
